When you browse on this site, cookies collect data to enhance your experience and personalize the content and advertising you see.
Visit our Privacy Policy to learn more. By continuing to use the site, you agree to this use of cookies and data.
  • In Hungary
  • List of Countries
  • For 7 days
  • Water Temperature
  • Satellite Maps
  • Weather Map
  • News
  • Weather Widgets
  • user-avatar
    Login

    Hourly Weather Uttarakhand

    Today, 11 December, Tuesday

    Time Temperature Precipitation Wind Pressure Humidity
    00:00 +1°C° 0 mm 2 mps 577 mmHg 29%
    01:00 -1°C° 0 mm 2 mps 577 mmHg 27%
    02:00 -1°C° 0 mm 2 mps 576 mmHg 25%
    03:00 -1°C° 0 mm 2 mps 576 mmHg 25%
    04:00 -1°C° 0 mm 2 mps 576 mmHg 25%
    05:00 -1°C° 0 mm 2 mps 576 mmHg 25%
    06:00 +1°C° 0 mm 2 mps 577 mmHg 26%
    07:00 +3°C° 0 mm 1 mps 577 mmHg 26%
    08:00 +4°C° 0 mm 1 mps 578 mmHg 26%
    09:00 +6°C° 0 mm 1 mps 579 mmHg 24%
    10:00 +9°C° 0 mm 1 mps 581 mmHg 22%
    11:00 +10°C° 0 mm 0 mps 582 mmHg 20%
    12:00 +11°C° 0 mm 1 mps 581 mmHg 21%
    13:00 +11°C° 0 mm 1 mps 580 mmHg 22%
    14:00 +10°C° 0 mm 1 mps 580 mmHg 23%
    15:00 +8°C° 0 mm 1 mps 579 mmHg 29%
    16:00 +6°C° 0 mm 1 mps 578 mmHg 34%
    17:00 +4°C° 0 mm 1 mps 577 mmHg 39%
    18:00 +4°C° 0 mm 1 mps 577 mmHg 38%
    19:00 +3°C° 0 mm 1 mps 578 mmHg 38%
    20:00 +1°C° 0 mm 2 mps 578 mmHg 38%
    21:00 +1°C° 0 mm 2 mps 578 mmHg 36%
    22:00 -1°C° 0 mm 2 mps 577 mmHg 34%
    23:00 -1°C° 0 mm 2 mps 577 mmHg 33%

    Tomorrow, 12 December, Wednesday

    Time Temperature Precipitation Wind Pressure Humidity
    00:00 -1°C° 0 mm 2 mps 577 mmHg 31%
    01:00 -2°C° 0 mm 2 mps 577 mmHg 30%
    02:00 -2°C° 0 mm 2 mps 577 mmHg 28%
    03:00 -2°C° 0 mm 2 mps 577 mmHg 27%
    04:00 -2°C° 0 mm 2 mps 576 mmHg 26%
    05:00 -3°C° 0 mm 2 mps 576 mmHg 25%
    06:00 -1°C° 0 mm 2 mps 577 mmHg 24%
    07:00 +1°C° 0 mm 2 mps 578 mmHg 23%
    08:00 +3°C° 0 mm 1 mps 579 mmHg 22%
    09:00 +6°C° 0 mm 1 mps 580 mmHg 20%
    10:00 +8°C° 0 mm 1 mps 582 mmHg 19%
    11:00 +10°C° 0 mm 0 mps 583 mmHg 17%
    12:00 +10°C° 0 mm 1 mps 582 mmHg 18%
    13:00 +10°C° 0 mm 1 mps 581 mmHg 19%
    14:00 +10°C° 0 mm 1 mps 581 mmHg 20%
    15:00 +7°C° 0 mm 1 mps 580 mmHg 25%
    16:00 +5°C° 0 mm 1 mps 579 mmHg 30%
    17:00 +3°C° 0 mm 1 mps 578 mmHg 35%
    18:00 +2°C° 0 mm 1 mps 578 mmHg 34%
    19:00 +2°C° 0 mm 1 mps 578 mmHg 33%
    20:00 -1°C° 0 mm 2 mps 579 mmHg 31%
    21:00 -1°C° 0 mm 2 mps 579 mmHg 29%
    22:00 -1°C° 0 mm 2 mps 578 mmHg 27%
    23:00 -2°C° 0 mm 2 mps 578 mmHg 24%

    Day after tomorrow, 13 December, Thursday

    Time Temperature Precipitation Wind Pressure Humidity
    00:00 -2°C° 0 mm 2 mps 578 mmHg 24%
    01:00 -2°C° 0 mm 2 mps 578 mmHg 23%
    02:00 -2°C° 0 mm 2 mps 578 mmHg 22%
    03:00 -2°C° 0 mm 2 mps 578 mmHg 23%
    04:00 -2°C° 0 mm 2 mps 578 mmHg 23%
    05:00 -2°C° 0 mm 2 mps 577 mmHg 23%
    06:00 -1°C° 0 mm 2 mps 578 mmHg 23%
    07:00 +1°C° 0 mm 2 mps 579 mmHg 23%
    08:00 +2°C° 0 mm 2 mps 580 mmHg 23%
    09:00 +5°C° 0 mm 1 mps 581 mmHg 21%
    10:00 +8°C° 0 mm 1 mps 582 mmHg 20%
    11:00 +10°C° 0 mm 1 mps 583 mmHg 18%
    12:00 +10°C° 0 mm 1 mps 583 mmHg 18%
    13:00 +10°C° 0 mm 1 mps 582 mmHg 19%
    14:00 +10°C° 0 mm 1 mps 581 mmHg 19%
    15:00 +8°C° 0 mm 1 mps 580 mmHg 24%
    16:00 +5°C° 0 mm 1 mps 579 mmHg 28%
    17:00 +3°C° 0 mm 1 mps 578 mmHg 33%
    18:00 +2°C° 0 mm 1 mps 578 mmHg 32%
    19:00 +1°C° 0 mm 1 mps 579 mmHg 31%
    20:00 -1°C° 0 mm 2 mps 579 mmHg 31%
    21:00 -2°C° 0 mm 2 mps 579 mmHg 29%
    22:00 -2°C° 0 mm 2 mps 579 mmHg 27%
    23:00 -2°C° 0 mm 2 mps 579 mmHg 26%

    14 December, Friday

    Time Temperature Precipitation Wind Pressure Humidity
    00:00 -2°C° 0 mm 2 mps 579 mmHg 25%
    01:00 -3°C° 0 mm 2 mps 578 mmHg 24%
    02:00 -3°C° 0 mm 2 mps 578 mmHg 23%
    03:00 -3°C° 0 mm 2 mps 578 mmHg 22%
    04:00 -3°C° 0 mm 2 mps 578 mmHg 22%
    05:00 -3°C° 0 mm 2 mps 578 mmHg 22%
    06:00 -2°C° 0 mm 2 mps 579 mmHg 21%
    07:00 -1°C° 0 mm 2 mps 580 mmHg 21%
    08:00 +1°C° 0 mm 2 mps 581 mmHg 20%
    09:00 +5°C° 0 mm 1 mps 582 mmHg 18%
    10:00 +8°C° 0 mm 1 mps 583 mmHg 16%
    11:00 +11°C° 0 mm 1 mps 584 mmHg 14%
    12:00 +10°C° 0 mm 1 mps 583 mmHg 15%
    13:00 +10°C° 0 mm 1 mps 583 mmHg 15%
    14:00 +10°C° 0 mm 1 mps 582 mmHg 15%
    15:00 +7°C° 0 mm 1 mps 581 mmHg 20%
    16:00 +5°C° 0 mm 1 mps 580 mmHg 25%
    17:00 +2°C° 0 mm 1 mps 579 mmHg 29%
    18:00 +2°C° 0 mm 1 mps 579 mmHg 28%
    19:00 -1°C° 0 mm 2 mps 580 mmHg 27%
    20:00 -2°C° 0 mm 2 mps 580 mmHg 26%
    21:00 -2°C° 0 mm 2 mps 580 mmHg 24%
    22:00 -2°C° 0 mm 2 mps 580 mmHg 22%
    23:00 -2°C° 0 mm 2 mps 580 mmHg 20%

    15 December, Saturday

    Time Temperature Precipitation Wind Pressure Humidity
    00:00 -2°C° 0 mm 2 mps 580 mmHg 18%
    01:00 -3°C° 0 mm 2 mps 579 mmHg 17%
    02:00 -3°C° 0 mm 2 mps 579 mmHg 15%
    03:00 -3°C° 0 mm 2 mps 579 mmHg 15%
    04:00 -3°C° 0 mm 2 mps 579 mmHg 14%
    05:00 -3°C° 0 mm 2 mps 579 mmHg 14%
    06:00 -2°C° 0 mm 2 mps 580 mmHg 14%
    07:00 +1°C° 0 mm 2 mps 581 mmHg 14%
    08:00 +2°C° 0 mm 2 mps 582 mmHg 15%
    09:00 +6°C° 0 mm 1 mps 583 mmHg 13%
    10:00 +9°C° 0 mm 1 mps 584 mmHg 11%
    11:00 +12°C° 0 mm 1 mps 585 mmHg 10%
    12:00 +12°C° 0 mm 1 mps 585 mmHg 11%
    13:00 +12°C° 0 mm 1 mps 584 mmHg 11%
    14:00 +12°C° 0 mm 2 mps 584 mmHg 12%
    15:00 +9°C° 0 mm 1 mps 582 mmHg 16%
    16:00 +6°C° 0 mm 1 mps 581 mmHg 21%
    17:00 +3°C° 0 mm 1 mps 580 mmHg 26%
    18:00 +3°C° 0 mm 1 mps 580 mmHg 24%
    19:00 +1°C° 0 mm 2 mps 581 mmHg 23%
    20:00 +1°C° 0 mm 2 mps 581 mmHg 21%
    21:00 +1°C° 0 mm 2 mps 581 mmHg 19%
    22:00 +1°C° 0 mm 2 mps 581 mmHg 17%
    23:00 +1°C° 0 mm 2 mps 581 mmHg 15%

    16 December, Sunday

    Time Temperature Precipitation Wind Pressure Humidity
    00:00 -1°C° 0 mm 2 mps 581 mmHg 14%
    01:00 -1°C° 0 mm 2 mps 580 mmHg 12%
    02:00 -1°C° 0 mm 2 mps 580 mmHg 10%
    03:00 -1°C° 0 mm 2 mps 580 mmHg 10%
    04:00 -1°C° 0 mm 2 mps 580 mmHg 9%
    05:00 -1°C° 0 mm 2 mps 580 mmHg 8%
    06:00 +1°C° 0 mm 2 mps 581 mmHg 9%
    07:00 +2°C° 0 mm 2 mps 582 mmHg 10%
    08:00 +4°C° 0 mm 2 mps 582 mmHg 12%
    09:00 +8°C° 0 mm 1 mps 584 mmHg 11%
    10:00 +11°C° 0 mm 1 mps 585 mmHg 9%
    11:00 +14°C° 0 mm 1 mps 586 mmHg 8%
    12:00 +14°C° 0 mm 1 mps 585 mmHg 9%
    13:00 +14°C° 0 mm 1 mps 585 mmHg 9%
    14:00 +14°C° 0 mm 1 mps 584 mmHg 10%
    15:00 +11°C° 0 mm 1 mps 583 mmHg 15%
    16:00 +8°C° 0 mm 1 mps 582 mmHg 19%
    17:00 +5°C° 0 mm 1 mps 580 mmHg 24%
    18:00 +4°C° 0 mm 1 mps 580 mmHg 23%
    19:00 +3°C° 0 mm 2 mps 581 mmHg 21%
    20:00 +2°C° 0 mm 2 mps 581 mmHg 19%
    21:00 +2°C° 0 mm 2 mps 581 mmHg 17%
    22:00 +2°C° 0 mm 2 mps 581 mmHg 14%
    23:00 +2°C° 0 mm 2 mps 580 mmHg 11%
    Show more